| time (UTC) | temp F | wind direction | speed knots | gust knots | rain 1hr in | rain 24hr in | rain mn in | humidity % | barometer mb |
| 20260903211846 | 78 | 261 | 7.8 | 14.8 | 0.00 | 0.00 | 0.00 | 18 | 930.4 |
| 20260903211343 | 77 | 177 | 0.0 | 4.3 | 0.00 | 0.00 | 0.00 | 20 | 930.5 |
| 20260903210839 | 76 | 232 | 7.8 | 13.9 | 0.00 | 0.00 | 0.00 | 19 | 930.9 |
| 20260903210333 | 76 | 218 | 3.5 | 7.0 | 0.00 | 0.00 | 0.00 | 20 | 930.9 |
| 20260903205833 | 77 | 313 | 4.3 | 11.3 | 0.00 | 0.00 | 0.00 | 19 | 930.8 |
| 20260903205333 | 76 | 256 | 0.0 | 6.1 | 0.00 | 0.00 | 0.00 | 21 | 930.8 |
| 20260903204828 | 76 | 257 | 4.3 | 8.7 | 0.00 | 0.00 | 0.00 | 19 | 930.9 |
| 20260903204324 | 77 | 187 | 4.3 | 8.7 | 0.00 | 0.00 | 0.00 | 19 | 930.8 |
| 20260903203819 | 76 | 196 | 7.0 | 8.7 | 0.00 | 0.00 | 0.00 | 18 | 931.0 |
| 20260903203315 | 76 | 216 | 7.0 | 13.9 | 0.00 | 0.00 | 0.00 | 19 | 930.9 |
| 20260903202814 | 75 | 245 | 6.1 | 8.7 | 0.00 | 0.00 | 0.00 | 19 | 931.3 |
| 20260903202311 | 76 | 221 | 6.1 | 14.8 | 0.00 | 0.00 | 0.00 | 19 | 931.1 |
| 20260903201810 | 76 | 194 | 7.8 | 11.3 | 0.00 | 0.00 | 0.00 | 18 | 931.3 |
| 20260903201305 | 75 | 220 | 7.0 | 13.9 | 0.00 | 0.00 | 0.00 | 19 | 931.6 |
| 20260903200804 | 75 | 184 | 3.5 | 7.0 | 0.00 | 0.00 | 0.00 | 18 | 931.6 |
| 20260903200259 | 75 | 283 | 0.0 | 8.7 | 0.00 | 0.00 | 0.00 | 20 | 931.5 |
| 20260903195754 | 75 | 232 | 8.7 | 11.3 | 0.00 | 0.00 | 0.00 | 19 | 931.3 |
| 20260903195250 | 75 | 186 | 5.2 | 13.0 | 0.00 | 0.00 | 0.00 | 19 | 931.2 |
| 20260903194745 | 74 | 239 | 5.2 | 9.6 | 0.00 | 0.00 | 0.00 | 20 | 931.5 |
| 20260903194241 | 75 | 241 | 8.7 | 11.3 | 0.00 | 0.00 | 0.00 | 19 | 931.7 |
| 20260903193736 | 75 | 206 | 7.0 | 13.0 | 0.00 | 0.00 | 0.00 | 18 | 931.7 |
| 20260903193232 | 74 | 205 | 6.1 | 11.3 | 0.00 | 0.00 | 0.00 | 19 | 931.6 |
| 20260903192728 | 75 | 252 | 8.7 | 11.3 | 0.00 | 0.00 | 0.00 | 19 | 931.6 |
| 20260903192223 | 74 | 192 | 3.5 | 5.2 | 0.00 | 0.00 | 0.00 | 20 | 931.6 |
| 20260903191719 | 75 | 203 | 3.5 | 9.6 | 0.00 | 0.00 | 0.00 | 19 | 931.5 |
| 20260903191215 | 73 | 184 | 3.5 | 11.3 | 0.00 | 0.00 | 0.00 | 19 | 931.8 |
| 20260903190709 | 73 | 227 | 2.6 | 12.2 | 0.00 | 0.00 | 0.00 | 19 | 931.5 |
| 20260903190209 | 73 | 198 | 5.2 | 14.8 | 0.00 | 0.00 | 0.00 | 20 | 931.5 |
| 20260903185704 | 73 | 250 | 6.1 | 11.3 | 0.00 | 0.00 | 0.00 | 19 | 931.8 |
| 20260903185158 | 73 | 206 | 5.2 | 9.6 | 0.00 | 0.00 | 0.00 | 20 | 931.9 |
| 20260903184655 | 73 | 205 | 4.3 | 9.6 | 0.00 | 0.00 | 0.00 | 20 | 931.9 |
| 20260903184151 | 73 | 262 | 7.8 | 12.2 | 0.00 | 0.00 | 0.00 | 20 | 931.9 |
| 20260903183650 | 73 | 210 | 8.7 | 9.6 | 0.00 | 0.00 | 0.00 | 19 | 932.1 |
| 20260903183145 | 73 | 248 | 0.9 | 12.2 | 0.00 | 0.00 | 0.00 | 21 | 931.9 |
| 20260903182643 | 72 | 233 | 9.6 | 14.8 | 0.00 | 0.00 | 0.00 | 19 | 931.8 |
| 20260903182140 | 72 | 228 | 11.3 | 13.0 | 0.00 | 0.00 | 0.00 | 18 | 931.8 |
| 20260903181637 | 73 | 237 | 7.8 | 9.6 | 0.00 | 0.00 | 0.00 | 19 | 931.8 |
| 20260903181132 | 72 | 217 | 0.9 | 7.0 | 0.00 | 0.00 | 0.00 | 20 | 932.1 |
| 20260903180628 | 73 | 158 | 9.6 | 13.9 | 0.00 | 0.00 | 0.00 | 19 | 932.1 |
| 20260903180122 | 72 | 196 | 5.2 | 9.6 | 0.00 | 0.00 | 0.00 | 19 | 932.1 |
| 20260903175621 | 72 | 203 | 5.2 | 12.2 | 0.00 | 0.00 | 0.00 | 19 | 932.4 |
| 20260903175121 | 71 | 254 | 6.1 | 12.2 | 0.00 | 0.00 | 0.00 | 20 | 932.5 |
| 20260903174615 | 71 | 258 | 7.8 | 11.3 | 0.00 | 0.00 | 0.00 | 19 | 932.4 |
| 20260903174110 | 72 | 251 | 3.5 | 7.0 | 0.00 | 0.00 | 0.00 | 21 | 932.3 |
| 20260903173605 | 71 | 164 | 6.1 | 13.9 | 0.00 | 0.00 | 0.00 | 20 | 932.4 |
| 20260903173102 | 71 | 275 | 8.7 | 14.8 | 0.00 | 0.00 | 0.00 | 19 | 932.4 |
| 20260903172556 | 71 | 242 | 7.0 | 11.3 | 0.00 | 0.00 | 0.00 | 19 | 932.3 |
| 20260903172052 | 70 | 224 | 5.2 | 17.4 | 0.00 | 0.00 | 0.00 | 20 | 932.4 |
| 20260903171552 | 71 | 253 | 5.2 | 11.3 | 0.00 | 0.00 | 0.00 | 19 | 932.3 |
| 20260903171048 | 71 | 220 | 4.3 | 7.8 | 0.00 | 0.00 | 0.00 | 19 | 932.4 |
| 20260903170546 | 70 | 243 | 6.1 | 7.8 | 0.00 | 0.00 | 0.00 | 20 | 932.3 |
| 20260903170042 | 70 | 347 | 3.5 | 12.2 | 0.00 | 0.00 | 0.00 | 20 | 932.3 |
| 20260903165539 | 70 | 221 | 0.0 | 8.7 | 0.00 | 0.00 | 0.00 | 21 | 932.3 |
| 20260903165035 | 70 | 201 | 7.0 | 8.7 | 0.00 | 0.00 | 0.00 | 20 | 932.1 |
| 20260903164534 | 70 | 202 | 3.5 | 4.3 | 0.00 | 0.00 | 0.00 | 21 | 932.3 |
| 20260903164030 | 69 | 308 | 2.6 | 7.8 | 0.00 | 0.00 | 0.00 | 22 | 932.1 |
| 20260903163525 | 68 | 218 | 7.0 | 9.6 | 0.00 | 0.00 | 0.00 | 21 | 932.3 |
| 20260903163021 | 68 | 249 | 8.7 | 11.3 | 0.00 | 0.00 | 0.00 | 20 | 932.3 |
| 20260903162517 | 68 | 265 | 5.2 | 11.3 | 0.00 | 0.00 | 0.00 | 21 | 932.7 |
| 20260903162013 | 68 | 240 | 0.0 | 11.3 | 0.00 | 0.00 | 0.00 | 21 | 932.1 |
| 20260903161508 | 68 | 264 | 6.1 | 13.0 | 0.00 | 0.00 | 0.00 | 22 | 932.1 |
| 20260903161005 | 67 | 241 | 6.1 | 7.8 | 0.00 | 0.00 | 0.00 | 21 | 932.3 |
| 20260903160503 | 66 | 141 | 7.0 | 9.6 | 0.00 | 0.00 | 0.00 | 23 | 932.0 |
| 20260903160002 | 64 | 187 | 0.0 | 0.0 | 0.00 | 0.00 | 0.00 | 32 | 932.1 |
| 20260903155456 | 63 | 87 | 0.0 | 0.0 | 0.00 | 0.00 | 0.00 | 34 | 932.1 |
| 20260903154953 | 63 | 38 | 0.0 | 0.0 | 0.00 | 0.00 | 0.00 | 34 | 932.3 |
| 20260903154448 | 62 | 1 | 0.9 | 4.3 | 0.00 | 0.00 | 0.00 | 32 | 932.1 |
| 20260903153944 | 61 | 30 | 0.0 | 0.0 | 0.00 | 0.00 | 0.00 | 32 | 932.5 |
| 20260903153440 | 61 | 4 | 0.0 | 0.0 | 0.00 | 0.00 | 0.00 | 33 | 932.5 |
| 20260903152935 | 60 | 14 | 0.0 | 0.0 | 0.00 | 0.00 | 0.00 | 36 | 932.3 |
| 20260903152431 | 60 | 18 | 0.0 | 0.0 | 0.00 | 0.00 | 0.00 | 35 | 932.6 |
| 20260903151927 | 59 | 19 | 0.0 | 0.0 | 0.00 | 0.00 | 0.00 | 36 | 932.6 |
| 20260903151416 | 59 | 16 | 0.0 | 0.0 | 0.00 | 0.00 | 0.00 | 36 | 932.6 |
| 20260903150916 | 59 | 12 | 0.0 | 0.0 | 0.00 | 0.00 | 0.00 | 34 | 932.6 |
| 20260903150410 | 58 | 29 | 0.0 | 0.0 | 0.00 | 0.00 | 0.00 | 35 | 932.9 |
| 20260903145905 | 58 | 38 | 0.0 | 0.0 | 0.00 | 0.00 | 0.00 | 38 | 932.9 |
| 20260903145400 | 58 | 53 | 0.0 | 0.0 | 0.00 | 0.00 | 0.00 | 41 | 932.6 |
| 20260903144859 | 56 | 64 | 0.0 | 0.0 | 0.00 | 0.00 | 0.00 | 47 | 932.7 |
| 20260903144355 | 55 | 83 | 0.0 | 0.0 | 0.00 | 0.00 | 0.00 | 48 | 932.6 |
| 20260903143850 | 54 | 63 | 0.0 | 1.7 | 0.00 | 0.00 | 0.00 | 50 | 932.4 |
| 20260903143347 | 52 | 64 | 0.0 | 1.7 | 0.00 | 0.00 | 0.00 | 52 | 932.1 |
| 20260903142842 | 51 | 48 | 0.0 | 1.7 | 0.00 | 0.00 | 0.00 | 55 | 932.0 |
| 20260903142338 | 51 | 67 | 0.0 | 0.9 | 0.00 | 0.00 | 0.00 | 51 | 932.0 |
| 20260903141834 | 50 | 83 | 0.0 | 0.0 | 0.00 | 0.00 | 0.00 | 56 | 931.8 |
| 20260903141330 | 49 | 54 | 0.0 | 0.0 | 0.00 | 0.00 | 0.00 | 57 | 931.8 |
| 20260903140830 | 48 | 70 | 0.0 | 0.0 | 0.00 | 0.00 | 0.00 | 55 | 931.7 |
| 20260903140325 | 47 | 81 | 0.0 | 0.9 | 0.00 | 0.00 | 0.00 | 57 | 931.7 |
| 20260903135821 | 46 | 85 | 0.0 | 2.6 | 0.00 | 0.00 | 0.00 | 56 | 931.5 |
| 20260903135316 | 46 | 83 | 0.0 | 0.0 | 0.00 | 0.00 | 0.00 | 58 | 931.7 |
| 20260903134814 | 46 | 77 | 0.0 | 0.9 | 0.00 | 0.00 | 0.00 | 58 | 931.5 |
| 20260903134310 | 45 | 47 | 0.0 | 0.0 | 0.00 | 0.00 | 0.00 | 57 | 931.5 |
| 20260903133808 | 44 | 59 | 0.0 | 0.0 | 0.00 | 0.00 | 0.00 | 59 | 931.6 |
| 20260903133304 | 44 | 82 | 0.0 | 1.7 | 0.00 | 0.00 | 0.00 | 59 | 931.5 |
| 20260903132804 | 44 | 70 | 0.0 | 0.9 | 0.00 | 0.00 | 0.00 | 59 | 931.3 |
| 20260903132259 | 44 | 81 | 0.0 | 0.0 | 0.00 | 0.00 | 0.00 | 59 | 931.2 |
| 20260903131754 | 43 | 61 | 0.0 | 0.0 | 0.00 | 0.00 | 0.00 | 61 | 931.1 |
| 20260903131253 | 43 | 77 | 2.6 | 2.6 | 0.00 | 0.00 | 0.00 | 62 | 931.1 |
| 20260903130748 | 42 | 73 | 0.0 | 0.0 | 0.00 | 0.00 | 0.00 | 64 | 931.1 |
| 20260903130243 | 42 | 73 | 0.0 | 0.0 | 0.00 | 0.00 | 0.00 | 64 | 931.0 |
| 20260903125741 | 42 | 82 | 0.0 | 0.9 | 0.00 | 0.00 | 0.00 | 64 | 930.9 |
| 20260903125237 | 42 | 66 | 1.7 | 1.7 | 0.00 | 0.00 | 0.00 | 65 | 931.0 |
| 20260903124736 | 42 | 72 | 0.9 | 1.7 | 0.00 | 0.00 | 0.00 | 65 | 930.9 |
| 20260903124232 | 42 | 68 | 1.7 | 1.7 | 0.00 | 0.00 | 0.00 | 66 | 930.9 |
| 20260903123730 | 42 | 53 | 0.0 | 0.0 | 0.00 | 0.00 | 0.00 | 67 | 930.8 |
| 20260903123229 | 42 | 77 | 0.9 | 1.7 | 0.00 | 0.00 | 0.00 | 67 | 930.8 |
| 20260903122728 | 42 | 64 | 0.0 | 2.6 | 0.00 | 0.00 | 0.00 | 66 | 931.0 |
| 20260903122224 | 42 | 112 | 2.6 | 2.6 | 0.00 | 0.00 | 0.00 | 66 | 930.9 |
| 20260903121722 | 43 | 158 | 0.0 | 0.0 | 0.00 | 0.00 | 0.00 | 66 | 930.9 |
| 20260903121218 | 43 | 56 | 0.0 | 0.0 | 0.00 | 0.00 | 0.00 | 64 | 931.0 |
| 20260903120718 | 44 | 55 | 0.0 | 0.0 | 0.00 | 0.00 | 0.00 | 62 | 930.9 |
| 20260903120212 | 44 | 73 | 0.0 | 0.0 | 0.00 | 0.00 | 0.00 | 61 | 930.8 |
| 20260903115710 | 45 | 59 | 0.0 | 0.0 | 0.00 | 0.00 | 0.00 | 60 | 930.8 |
| 20260903115206 | 44 | 102 | 0.0 | 0.0 | 0.00 | 0.00 | 0.00 | 60 | 930.8 |
| 20260903114701 | 44 | 105 | 0.0 | 0.0 | 0.00 | 0.00 | 0.00 | 61 | 930.7 |
| 20260903114155 | 45 | 60 | 0.0 | 0.0 | 0.00 | 0.00 | 0.00 | 58 | 930.4 |
| 20260903113651 | 45 | 60 | 0.0 | 0.0 | 0.00 | 0.00 | 0.00 | 59 | 930.5 |
| 20260903113147 | 46 | 60 | 0.0 | 0.0 | 0.00 | 0.00 | 0.00 | 59 | 930.5 |
| 20260903112644 | 46 | 62 | 0.0 | 0.0 | 0.00 | 0.00 | 0.00 | 59 | 930.7 |
| 20260903112144 | 45 | 67 | 0.0 | 0.0 | 0.00 | 0.00 | 0.00 | 60 | 930.3 |
| 20260903111642 | 45 | 61 | 0.0 | 0.0 | 0.00 | 0.00 | 0.00 | 66 | 930.4 |
| 20260903111138 | 45 | 68 | 0.0 | 0.0 | 0.00 | 0.00 | 0.00 | 66 | 930.5 |
| 20260903110634 | 45 | 71 | 0.0 | 0.0 | 0.00 | 0.00 | 0.00 | 67 | 930.3 |
| 20260903110130 | 46 | 76 | 0.0 | 0.0 | 0.00 | 0.00 | 0.00 | 66 | 930.5 |
| 20260903105624 | 47 | 75 | 0.0 | 0.0 | 0.00 | 0.00 | 0.00 | 65 | 930.3 |
| 20260903105120 | 46 | 74 | 0.0 | 0.0 | 0.00 | 0.00 | 0.00 | 67 | 930.3 |
| 20260903104619 | 47 | 78 | 0.0 | 0.0 | 0.00 | 0.00 | 0.00 | 68 | 930.5 |
| 20260903104115 | 47 | 72 | 0.0 | 0.0 | 0.00 | 0.00 | 0.00 | 67 | 930.2 |
| 20260903103610 | 47 | 75 | 0.0 | 0.0 | 0.00 | 0.00 | 0.00 | 69 | 930.4 |
| 20260903103107 | 48 | 55 | 0.0 | 0.0 | 0.00 | 0.00 | 0.00 | 68 | 930.4 |
| 20260903102602 | 48 | 60 | 0.0 | 0.0 | 0.00 | 0.00 | 0.00 | 67 | 930.4 |
| 20260903102101 | 48 | 69 | 0.0 | 0.0 | 0.00 | 0.00 | 0.00 | 67 | 930.4 |
| 20260903101555 | 48 | 60 | 0.0 | 0.0 | 0.00 | 0.00 | 0.00 | 67 | 930.5 |
| 20260903101051 | 48 | 67 | 0.0 | 0.0 | 0.00 | 0.00 | 0.00 | 65 | 930.4 |
| 20260903100551 | 49 | 53 | 0.0 | 0.0 | 0.00 | 0.00 | 0.00 | 66 | 930.3 |
| 20260903100050 | 49 | 50 | 0.0 | 0.0 | 0.00 | 0.00 | 0.00 | 66 | 930.3 |
| 20260903095548 | 49 | 50 | 0.0 | 0.0 | 0.00 | 0.00 | 0.00 | 65 | 930.8 |
| 20260903095043 | 48 | 51 | 0.0 | 0.0 | 0.00 | 0.00 | 0.00 | 65 | 930.5 |
| 20260903094542 | 49 | 52 | 0.0 | 0.0 | 0.00 | 0.00 | 0.00 | 63 | 930.7 |
| 20260903094038 | 50 | 52 | 0.0 | 0.0 | 0.00 | 0.00 | 0.00 | 62 | 930.7 |
| 20260903093533 | 50 | 53 | 0.0 | 0.0 | 0.00 | 0.00 | 0.00 | 60 | 930.3 |
| 20260903093029 | 49 | 70 | 0.0 | 0.0 | 0.00 | 0.00 | 0.00 | 65 | 930.4 |
| 20260903092528 | 49 | 56 | 0.0 | 0.0 | 0.00 | 0.00 | 0.00 | 68 | 930.5 |
| 20260903092028 | 49 | 63 | 0.0 | 0.0 | 0.00 | 0.00 | 0.00 | 65 | 930.2 |
| 20260903091527 | 49 | 70 | 0.0 | 0.0 | 0.00 | 0.00 | 0.00 | 63 | 930.3 |
| 20260903091026 | 50 | 73 | 0.0 | 0.0 | 0.00 | 0.00 | 0.00 | 63 | 930.4 |
| 20260903090523 | 51 | 63 | 0.0 | 0.0 | 0.00 | 0.00 | 0.00 | 63 | 930.4 |
| 20260903090021 | 51 | 54 | 0.0 | 0.0 | 0.00 | 0.00 | 0.00 | 64 | 930.4 |
| 20260903085519 | 51 | 53 | 0.0 | 0.0 | 0.00 | 0.00 | 0.00 | 63 | 930.4 |
| 20260903085015 | 51 | 67 | 0.0 | 0.0 | 0.00 | 0.00 | 0.00 | 62 | 930.4 |
| 20260903084513 | 51 | 67 | 0.0 | 0.0 | 0.00 | 0.00 | 0.00 | 62 | 930.4 |
| 20260903084008 | 51 | 70 | 0.0 | 0.0 | 0.00 | 0.00 | 0.00 | 61 | 930.3 |
| 20260903083504 | 51 | 73 | 0.0 | 0.0 | 0.00 | 0.00 | 0.00 | 61 | 930.1 |
| 20260903083004 | 50 | 83 | 0.0 | 0.0 | 0.00 | 0.00 | 0.00 | 61 | 930.3 |
| 20260903082458 | 50 | 59 | 0.0 | 0.0 | 0.00 | 0.00 | 0.00 | 61 | 930.3 |
| 20260903081954 | 50 | 61 | 0.0 | 0.0 | 0.00 | 0.00 | 0.00 | 62 | 930.4 |
| 20260903081449 | 50 | 68 | 0.0 | 0.0 | 0.00 | 0.00 | 0.00 | 61 | 930.4 |
| 20260903080945 | 50 | 71 | 0.0 | 0.0 | 0.00 | 0.00 | 0.00 | 60 | 930.4 |
| 20260903080441 | 50 | 68 | 0.0 | 0.0 | 0.00 | 0.00 | 0.00 | 62 | 930.1 |
| 20260903075937 | 50 | 81 | 0.0 | 0.0 | 0.00 | 0.00 | 0.00 | 62 | 930.3 |
| 20260903075432 | 50 | 103 | 0.0 | 0.0 | 0.00 | 0.00 | 0.00 | 63 | 930.3 |
| 20260903074927 | 50 | 77 | 0.0 | 0.0 | 0.00 | 0.00 | 0.00 | 62 | 930.3 |
| 20260903074426 | 50 | 68 | 0.0 | 0.0 | 0.00 | 0.00 | 0.00 | 62 | 930.4 |
| 20260903073921 | 50 | 83 | 0.0 | 0.9 | 0.00 | 0.00 | 0.00 | 62 | 930.2 |
| 20260903073416 | 50 | 58 | 0.0 | 0.0 | 0.00 | 0.00 | 0.00 | 62 | 930.2 |
| 20260903072912 | 50 | 109 | 0.0 | 0.0 | 0.00 | 0.00 | 0.00 | 61 | 930.2 |
| 20260903072408 | 51 | 67 | 0.0 | 0.0 | 0.00 | 0.00 | 0.00 | 61 | 930.3 |
| 20260903071905 | 51 | 73 | 0.0 | 0.0 | 0.00 | 0.00 | 0.00 | 58 | 930.3 |
| 20260903071401 | 51 | 91 | 0.0 | 2.6 | 0.00 | 0.00 | 0.00 | 59 | 930.1 |
| 20260903070856 | 50 | 116 | 0.0 | 1.7 | 0.00 | 0.00 | 0.00 | 59 | 930.2 |
| 20260903070350 | 50 | 81 | 0.0 | 0.0 | 0.00 | 0.00 | 0.00 | 61 | 930.3 |
| 20260903065845 | 50 | 65 | 0.0 | 0.0 | 0.00 | 0.00 | 0.00 | 59 | 930.3 |
| 20260903065344 | 50 | 57 | 0.0 | 0.0 | 0.00 | 0.00 | 0.00 | 60 | 930.2 |
| 20260903064838 | 51 | 67 | 0.0 | 0.0 | 0.00 | 0.00 | 0.00 | 60 | 930.4 |
| 20260903064334 | 50 | 61 | 0.0 | 0.0 | 0.00 | 0.00 | 0.00 | 61 | 930.3 |
| 20260903063829 | 51 | 67 | 0.0 | 0.0 | 0.00 | 0.00 | 0.00 | 59 | 930.4 |
| 20260903063324 | 51 | 55 | 0.0 | 0.0 | 0.00 | 0.00 | 0.00 | 59 | 930.2 |
| 20260903062820 | 50 | 61 | 0.0 | 0.0 | 0.00 | 0.00 | 0.00 | 60 | 930.2 |
| 20260903062320 | 51 | 69 | 0.0 | 0.0 | 0.00 | 0.00 | 0.00 | 60 | 930.1 |
| 20260903061817 | 50 | 55 | 0.0 | 0.0 | 0.00 | 0.00 | 0.00 | 60 | 930.2 |
| 20260903061315 | 50 | 64 | 0.0 | 0.0 | 0.00 | 0.00 | 0.00 | 59 | 930.1 |
| 20260903060812 | 51 | 118 | 0.0 | 0.0 | 0.00 | 0.00 | 0.00 | 57 | 930.0 |
| 20260903060311 | 50 | 53 | 0.0 | 0.0 | 0.00 | 0.00 | 0.00 | 57 | 930.0 |
| 20260903055808 | 50 | 199 | 0.0 | 0.0 | 0.00 | 0.00 | 0.00 | 61 | 930.2 |
| 20260903055306 | 51 | 43 | 0.0 | 0.9 | 0.00 | 0.00 | 0.00 | 59 | 929.9 |
| 20260903054756 | 51 | 54 | 0.0 | 0.0 | 0.00 | 0.00 | 0.00 | 60 | 929.7 |
| 20260903054251 | 52 | 35 | 0.0 | 0.0 | 0.00 | 0.00 | 0.00 | 55 | 930.0 |
| 20260903053748 | 52 | 67 | 0.0 | 0.0 | 0.00 | 0.00 | 0.00 | 54 | 929.9 |
| 20260903053248 | 53 | 66 | 0.0 | 0.0 | 0.00 | 0.00 | 0.00 | 55 | 930.0 |
| 20260903052743 | 53 | 60 | 0.0 | 0.0 | 0.00 | 0.00 | 0.00 | 54 | 929.9 |
| 20260903052239 | 53 | 82 | 0.0 | 0.0 | 0.00 | 0.00 | 0.00 | 54 | 930.0 |
| 20260903051734 | 53 | 71 | 0.0 | 0.0 | 0.00 | 0.00 | 0.00 | 52 | 930.0 |
| 20260903051230 | 53 | 64 | 0.0 | 0.0 | 0.00 | 0.00 | 0.00 | 52 | 930.1 |
| 20260903050725 | 53 | 85 | 0.0 | 0.0 | 0.00 | 0.00 | 0.00 | 53 | 930.1 |
| 20260903050224 | 53 | 87 | 0.0 | 0.0 | 0.00 | 0.00 | 0.00 | 54 | 930.0 |
| 20260903045719 | 53 | 81 | 0.0 | 0.0 | 0.00 | 0.00 | 0.00 | 53 | 930.2 |
| 20260903045215 | 53 | 51 | 0.0 | 0.0 | 0.00 | 0.00 | 0.00 | 52 | 930.1 |
| 20260903044711 | 53 | 82 | 0.0 | 1.7 | 0.00 | 0.00 | 0.00 | 53 | 930.2 |
| 20260903044206 | 54 | 54 | 0.0 | 0.0 | 0.00 | 0.00 | 0.00 | 49 | 930.1 |
| 20260903043703 | 55 | 58 | 0.0 | 0.0 | 0.00 | 0.00 | 0.00 | 49 | 930.3 |
| 20260903043202 | 55 | 80 | 0.9 | 2.6 | 0.00 | 0.00 | 0.00 | 48 | 930.1 |
| 20260903042701 | 55 | 79 | 2.6 | 7.0 | 0.00 | 0.00 | 0.00 | 48 | 930.2 |
| 20260903042156 | 55 | 60 | 0.0 | 0.0 | 0.00 | 0.00 | 0.00 | 49 | 930.5 |
| 20260903041653 | 54 | 74 | 0.9 | 2.6 | 0.00 | 0.00 | 0.00 | 52 | 930.4 |
| 20260903041148 | 56 | 71 | 0.0 | 0.0 | 0.00 | 0.00 | 0.00 | 49 | 930.3 |
| 20260903040648 | 56 | 58 | 0.0 | 0.0 | 0.00 | 0.00 | 0.00 | 50 | 930.2 |
| 20260903040144 | 56 | 107 | 0.0 | 0.0 | 0.00 | 0.00 | 0.00 | 52 | 930.2 |
| 20260903035640 | 56 | 98 | 0.0 | 0.0 | 0.00 | 0.00 | 0.00 | 53 | 930.1 |
| 20260903035135 | 56 | 49 | 0.0 | 0.0 | 0.00 | 0.00 | 0.00 | 51 | 929.7 |
| 20260903034630 | 57 | 42 | 0.0 | 0.0 | 0.00 | 0.00 | 0.00 | 49 | 929.5 |
| 20260903034125 | 59 | 61 | 0.0 | 0.0 | 0.00 | 0.00 | 0.00 | 46 | 929.5 |
| 20260903033620 | 57 | 73 | 0.0 | 0.0 | 0.00 | 0.00 | 0.00 | 48 | 929.4 |
| 20260903033115 | 57 | 100 | 0.0 | 0.0 | 0.00 | 0.00 | 0.00 | 47 | 929.9 |
| 20260903032610 | 58 | 33 | 0.0 | 1.7 | 0.00 | 0.00 | 0.00 | 46 | 929.9 |
| 20260903032105 | 58 | 44 | 0.0 | 0.0 | 0.00 | 0.00 | 0.00 | 44 | 930.0 |
| 20260903031600 | 58 | 51 | 0.0 | 0.0 | 0.00 | 0.00 | 0.00 | 46 | 930.0 |
| 20260903031055 | 58 | 22 | 0.0 | 0.0 | 0.00 | 0.00 | 0.00 | 48 | 930.0 |
| 20260903030550 | 61 | 41 | 0.0 | 0.0 | 0.00 | 0.00 | 0.00 | 45 | 929.9 |
| 20260903030047 | 61 | 65 | 0.0 | 0.0 | 0.00 | 0.00 | 0.00 | 38 | 929.7 |
| 20260903025541 | 60 | 54 | 0.0 | 0.0 | 0.00 | 0.00 | 0.00 | 40 | 929.7 |
| 20260903025037 | 60 | 11 | 0.0 | 0.0 | 0.00 | 0.00 | 0.00 | 42 | 929.9 |
| 20260903024536 | 60 | 21 | 0.0 | 0.0 | 0.00 | 0.00 | 0.00 | 45 | 929.7 |
| 20260903024031 | 61 | 21 | 0.0 | 0.0 | 0.00 | 0.00 | 0.00 | 45 | 930.1 |
| 20260903023527 | 62 | 359 | 0.0 | 0.0 | 0.00 | 0.00 | 0.00 | 43 | 930.0 |
| 20260903023022 | 62 | 36 | 0.0 | 0.0 | 0.00 | 0.00 | 0.00 | 39 | 930.0 |
| 20260903022521 | 62 | 35 | 0.0 | 0.0 | 0.00 | 0.00 | 0.00 | 42 | 930.1 |
| 20260903022020 | 63 | 35 | 0.0 | 0.0 | 0.00 | 0.00 | 0.00 | 41 | 930.0 |
| 20260903021515 | 65 | 35 | 0.0 | 0.0 | 0.00 | 0.00 | 0.00 | 35 | 930.1 |
| 20260903021010 | 65 | 35 | 0.0 | 0.0 | 0.00 | 0.00 | 0.00 | 34 | 930.2 |
| 20260903020506 | 67 | 36 | 0.0 | 0.0 | 0.00 | 0.00 | 0.00 | 31 | 930.1 |
| 20260903020000 | 67 | 16 | 0.0 | 0.0 | 0.00 | 0.00 | 0.00 | 30 | 929.9 |
| 20260903015456 | 68 | 10 | 0.0 | 0.0 | 0.00 | 0.00 | 0.00 | 29 | 929.6 |
| 20260903014955 | 68 | 298 | 0.0 | 0.0 | 0.00 | 0.00 | 0.00 | 29 | 929.5 |
| 20260903014449 | 69 | 291 | 0.0 | 0.0 | 0.00 | 0.00 | 0.00 | 27 | 929.4 |
| 20260903013944 | 70 | 257 | 0.0 | 0.0 | 0.00 | 0.00 | 0.00 | 27 | 929.6 |
| 20260903013444 | 70 | 272 | 0.9 | 7.0 | 0.00 | 0.00 | 0.00 | 26 | 929.7 |
| 20260903012943 | 70 | 315 | 3.5 | 7.8 | 0.00 | 0.00 | 0.00 | 27 | 929.6 |
| 20260903012438 | 70 | 278 | 1.7 | 5.2 | 0.00 | 0.00 | 0.00 | 25 | 930.0 |
| 20260903011937 | 71 | 201 | 5.2 | 9.6 | 0.00 | 0.00 | 0.00 | 25 | 929.9 |
| 20260903011432 | 71 | 330 | 2.6 | 5.2 | 0.00 | 0.00 | 0.00 | 26 | 930.1 |
| 20260903010932 | 71 | 255 | 6.1 | 9.6 | 0.00 | 0.00 | 0.00 | 24 | 930.0 |
| 20260903010427 | 72 | 279 | 5.2 | 7.8 | 0.00 | 0.00 | 0.00 | 24 | 930.0 |
| 20260903005925 | 73 | 241 | 6.1 | 11.3 | 0.00 | 0.00 | 0.00 | 24 | 930.0 |
| 20260903005415 | 73 | 262 | 7.8 | 12.2 | 0.00 | 0.00 | 0.00 | 24 | 930.0 |
| 20260903004912 | 74 | 190 | 5.2 | 12.2 | 0.00 | 0.00 | 0.00 | 24 | 930.0 |
| 20260903004406 | 74 | 260 | 5.2 | 8.7 | 0.00 | 0.00 | 0.00 | 25 | 930.3 |
| 20260903003902 | 74 | 258 | 8.7 | 11.3 | 0.00 | 0.00 | 0.00 | 24 | 930.4 |
| 20260903003402 | 74 | 273 | 2.6 | 9.6 | 0.00 | 0.00 | 0.00 | 25 | 930.3 |
| 20260903002856 | 75 | 221 | 6.1 | 12.2 | 0.00 | 0.00 | 0.00 | 25 | 930.3 |
| 20260903002351 | 75 | 261 | 0.0 | 5.2 | 0.00 | 0.00 | 0.00 | 25 | 930.4 |
| 20260903001845 | 75 | 165 | 9.6 | 13.9 | 0.00 | 0.00 | 0.00 | 22 | 930.4 |
| 20260903001341 | 75 | 308 | 0.9 | 8.7 | 0.00 | 0.00 | 0.00 | 25 | 930.2 |
| 20260903000840 | 76 | 342 | 7.0 | 14.8 | 0.00 | 0.00 | 0.00 | 24 | 930.4 |
| 20260903000336 | 76 | 223 | 4.3 | 13.9 | 0.00 | 0.00 | 0.00 | 23 | 930.3 |
| 20260902235834 | 75 | 252 | 6.1 | 9.6 | 0.00 | 0.00 | 0.00 | 23 | 930.3 |
| 20260902235329 | 75 | 194 | 5.2 | 7.8 | 0.00 | 0.00 | 0.00 | 24 | 930.5 |
| 20260902234829 | 76 | 252 | 9.6 | 13.9 | 0.00 | 0.00 | 0.00 | 23 | 930.7 |
| 20260902234328 | 76 | 227 | 7.0 | 13.0 | 0.00 | 0.00 | 0.00 | 23 | 930.5 |
| 20260902233827 | 77 | 285 | 6.1 | 8.7 | 0.00 | 0.00 | 0.00 | 23 | 930.4 |
| 20260902233328 | 76 | 215 | 5.2 | 12.2 | 0.00 | 0.00 | 0.00 | 23 | 930.4 |
| 20260902232826 | 76 | 237 | 10.4 | 17.4 | 0.00 | 0.00 | 0.00 | 22 | 930.4 |
| 20260902232321 | 76 | 254 | 7.0 | 14.8 | 0.00 | 0.00 | 0.00 | 23 | 930.7 |
| 20260902231820 | 77 | 320 | 5.2 | 13.0 | 0.00 | 0.00 | 0.00 | 24 | 930.3 |
| 20260902231316 | 77 | 243 | 1.7 | 14.8 | 0.00 | 0.00 | 0.00 | 23 | 930.7 |
| 20260902230811 | 76 | 233 | 4.3 | 14.8 | 0.00 | 0.00 | 0.00 | 23 | 930.4 |
| 20260902230309 | 76 | 246 | 4.3 | 12.2 | 0.00 | 0.00 | 0.00 | 23 | 930.4 |
| 20260902225804 | 76 | 218 | 7.0 | 11.3 | 0.00 | 0.00 | 0.00 | 23 | 930.5 |
| 20260902225259 | 77 | 227 | 9.6 | 17.4 | 0.00 | 0.00 | 0.00 | 21 | 930.9 |
| 20260902224758 | 77 | 264 | 9.6 | 18.2 | 0.00 | 0.00 | 0.00 | 22 | 930.7 |
| 20260902224253 | 76 | 244 | 6.1 | 13.9 | 0.00 | 0.00 | 0.00 | 24 | 930.2 |
| 20260902223750 | 75 | 259 | 7.0 | 18.2 | 0.00 | 0.00 | 0.00 | 23 | 930.3 |
| 20260902223249 | 75 | 232 | 9.6 | 14.8 | 0.00 | 0.00 | 0.00 | 23 | 930.7 |
| 20260902222748 | 75 | 199 | 4.3 | 11.3 | 0.00 | 0.00 | 0.00 | 25 | 930.5 |
| 20260902222248 | 75 | 316 | 2.6 | 13.0 | 0.00 | 0.00 | 0.00 | 25 | 930.8 |
| 20260902221742 | 76 | 249 | 5.2 | 9.6 | 0.00 | 0.00 | 0.00 | 25 | 930.9 |
| 20260902221242 | 75 | 233 | 7.8 | 12.2 | 0.00 | 0.00 | 0.00 | 25 | 930.5 |
| 20260902220738 | 75 | 184 | 8.7 | 12.2 | 0.00 | 0.00 | 0.00 | 25 | 930.7 |
| 20260902220237 | 75 | 241 | 7.8 | 9.6 | 0.00 | 0.00 | 0.00 | 25 | 930.8 |
| 20260902215733 | 77 | 159 | 5.2 | 12.2 | 0.00 | 0.00 | 0.00 | 24 | 930.8 |
| 20260902215228 | 77 | 166 | 7.8 | 12.2 | 0.00 | 0.00 | 0.00 | 25 | 930.5 |
| 20260902214724 | 76 | 211 | 9.6 | 15.6 | 0.00 | 0.00 | 0.00 | 25 | 930.7 |
| 20260902214222 | 76 | 224 | 9.6 | 12.2 | 0.00 | 0.00 | 0.00 | 25 | 930.5 |
| 20260902213718 | 77 | 256 | 3.5 | 13.9 | 0.00 | 0.00 | 0.00 | 25 | 930.7 |
| 20260902213213 | 76 | 167 | 5.2 | 12.2 | 0.00 | 0.00 | 0.00 | 25 | 930.7 |
| 20260902212713 | 77 | 236 | 11.3 | 13.9 | 0.00 | 0.00 | 0.00 | 24 | 930.7 |
| 20260902212209 | 77 | 267 | 6.1 | 13.0 | 0.00 | 0.00 | 0.00 | 25 | 930.8 |